| time (UTC) | temp F | wind direction | speed knots | gust knots | rain 1hr in | rain 24hr in | rain mn in | humidity % | barometer mb |
| 20260505070503 | 51 | 333 | 2.6 | 4.3 | 0.00 | 0.00 | 0.00 | 49 | 1023.0 |
| 20260505065958 | 52 | 47 | 0.9 | 0.9 | 0.00 | 0.00 | 0.00 | 48 | 1022.8 |
| 20260505065455 | 49 | 60 | 1.7 | 2.6 | 0.00 | 0.00 | 0.00 | 52 | 1022.8 |
| 20260505064951 | 47 | 347 | 2.6 | 4.3 | 0.00 | 0.00 | 0.00 | 57 | 1022.7 |
| 20260505064448 | 46 | 332 | 0.9 | 1.7 | 0.00 | 0.00 | 0.00 | 60 | 1022.6 |
| 20260505063947 | 46 | 60 | 0.9 | 0.9 | 0.00 | 0.00 | 0.00 | 59 | 1022.2 |
| 20260505063443 | 47 | 200 | 0.0 | 0.0 | 0.00 | 0.00 | 0.00 | 62 | 1022.3 |
| 20260505062939 | 48 | 191 | 0.9 | 0.9 | 0.00 | 0.00 | 0.00 | 59 | 1022.3 |
| 20260505062436 | 49 | 177 | 0.9 | 0.9 | 0.00 | 0.00 | 0.00 | 58 | 1022.2 |
| 20260505061933 | 49 | 177 | 1.7 | 1.7 | 0.00 | 0.00 | 0.00 | 58 | 1022.3 |
| 20260505061432 | 50 | 120 | 0.9 | 1.7 | 0.00 | 0.00 | 0.00 | 52 | 1022.5 |
| 20260505060929 | 50 | 193 | 0.9 | 0.9 | 0.00 | 0.00 | 0.00 | 54 | 1022.2 |
| 20260505060426 | 50 | 221 | 0.0 | 0.0 | 0.00 | 0.00 | 0.00 | 54 | 1022.0 |
| 20260505055922 | 51 | 183 | 0.0 | 0.0 | 0.00 | 0.00 | 0.00 | 52 | 1022.0 |
| 20260505055418 | 51 | 263 | 3.5 | 4.3 | 0.00 | 0.00 | 0.00 | 52 | 1021.9 |
| 20260505054915 | 52 | 239 | 0.0 | 0.0 | 0.00 | 0.00 | 0.00 | 52 | 1022.0 |
| 20260505054412 | 52 | 268 | 1.7 | 1.7 | 0.00 | 0.00 | 0.00 | 51 | 1021.7 |
| 20260505053910 | 50 | 43 | 0.0 | 0.0 | 0.00 | 0.00 | 0.00 | 62 | 1021.7 |
| 20260505053407 | 51 | 69 | 1.7 | 1.7 | 0.00 | 0.00 | 0.00 | 57 | 1021.8 |
| 20260505052903 | 51 | 341 | 0.0 | 0.9 | 0.00 | 0.00 | 0.00 | 62 | 1021.8 |
| 20260505052401 | 52 | 200 | 0.0 | 0.0 | 0.00 | 0.00 | 0.00 | 52 | 1021.7 |
| 20260505051858 | 52 | 61 | 0.0 | 0.0 | 0.00 | 0.00 | 0.00 | 56 | 1021.6 |
| 20260505051355 | 54 | 331 | 0.9 | 0.9 | 0.00 | 0.00 | 0.00 | 51 | 1021.5 |
| 20260505050853 | 52 | 338 | 2.6 | 2.6 | 0.00 | 0.00 | 0.00 | 53 | 1021.6 |
| 20260505050351 | 53 | 344 | 3.5 | 4.3 | 0.00 | 0.00 | 0.00 | 53 | 1021.6 |
| 20260505041319 | 54 | 181 | 2.6 | 5.2 | 0.00 | 0.00 | 0.00 | 50 | 1021.2 |
| 20260505040815 | 54 | 70 | 0.9 | 0.9 | 0.00 | 0.00 | 0.00 | 58 | 1021.2 |
| 20260505040313 | 55 | 185 | 0.9 | 0.9 | 0.00 | 0.00 | 0.00 | 48 | 1020.8 |
| 20260505035809 | 53 | 241 | 0.9 | 0.9 | 0.00 | 0.00 | 0.00 | 50 | 1021.1 |
| 20260505035305 | 53 | 269 | 0.0 | 0.0 | 0.00 | 0.00 | 0.00 | 55 | 1021.0 |
| 20260505034803 | 55 | 279 | 0.9 | 0.9 | 0.00 | 0.00 | 0.00 | 48 | 1020.6 |
| 20260505034259 | 54 | 146 | 2.6 | 2.6 | 0.00 | 0.00 | 0.00 | 58 | 1020.9 |
| 20260505033756 | 54 | 282 | 0.0 | 0.0 | 0.00 | 0.00 | 0.00 | 50 | 1020.6 |
| 20260505033254 | 56 | 262 | 0.0 | 0.0 | 0.00 | 0.00 | 0.00 | 48 | 1020.7 |
| 20260505032752 | 57 | 247 | 0.9 | 0.9 | 0.00 | 0.00 | 0.00 | 49 | 1020.6 |
| 20260505032247 | 55 | 281 | 0.0 | 0.0 | 0.00 | 0.00 | 0.00 | 49 | 1020.2 |
| 20260505031745 | 56 | 277 | 0.0 | 0.0 | 0.00 | 0.00 | 0.00 | 48 | 1020.2 |
| 20260505031241 | 57 | 336 | 2.6 | 4.3 | 0.00 | 0.00 | 0.00 | 49 | 1020.1 |
| 20260505030738 | 58 | 202 | 0.0 | 0.0 | 0.00 | 0.00 | 0.00 | 45 | 1019.9 |
| 20260505030234 | 58 | 86 | 2.6 | 4.3 | 0.00 | 0.00 | 0.00 | 44 | 1020.1 |
| 20260505025730 | 58 | 37 | 2.6 | 2.6 | 0.00 | 0.00 | 0.00 | 45 | 1019.8 |
| 20260505025228 | 57 | 331 | 0.0 | 0.0 | 0.00 | 0.00 | 0.00 | 46 | 1019.6 |
| 20260505024726 | 58 | 271 | 1.7 | 1.7 | 0.00 | 0.00 | 0.00 | 46 | 1019.8 |
| 20260505024223 | 59 | 235 | 3.5 | 5.2 | 0.00 | 0.00 | 0.00 | 42 | 1019.6 |
| 20260505023721 | 58 | 259 | 0.0 | 0.0 | 0.00 | 0.00 | 0.00 | 47 | 1019.5 |
| 20260505023218 | 58 | 321 | 3.5 | 4.3 | 0.00 | 0.00 | 0.00 | 46 | 1019.2 |
| 20260505022715 | 58 | 309 | 0.0 | 0.9 | 0.00 | 0.00 | 0.00 | 46 | 1019.1 |
| 20260505022212 | 58 | 252 | 0.0 | 0.0 | 0.00 | 0.00 | 0.00 | 48 | 1019.0 |
| 20260505021709 | 59 | 265 | 0.0 | 0.0 | 0.00 | 0.00 | 0.00 | 48 | 1019.0 |
| 20260505021206 | 60 | 268 | 0.0 | 0.0 | 0.00 | 0.00 | 0.00 | 47 | 1018.9 |
| 20260505020701 | 60 | 137 | 2.6 | 2.6 | 0.00 | 0.00 | 0.00 | 44 | 1018.7 |
| 20260505020157 | 60 | 223 | 0.0 | 0.9 | 0.00 | 0.00 | 0.00 | 45 | 1018.7 |
| 20260505015655 | 61 | 97 | 0.0 | 0.9 | 0.00 | 0.00 | 0.00 | 45 | 1018.5 |
| 20260505015151 | 62 | 260 | 0.0 | 0.0 | 0.00 | 0.00 | 0.00 | 46 | 1018.5 |
| 20260505014648 | 61 | 140 | 0.0 | 0.0 | 0.00 | 0.00 | 0.00 | 44 | 1018.4 |
| 20260505014145 | 62 | 246 | 0.0 | 0.0 | 0.00 | 0.00 | 0.00 | 45 | 1018.3 |
| 20260505013642 | 63 | 242 | 0.0 | 0.9 | 0.00 | 0.00 | 0.00 | 44 | 1018.3 |
| 20260505013139 | 64 | 56 | 1.7 | 6.1 | 0.00 | 0.00 | 0.00 | 42 | 1018.4 |
| 20260505012638 | 65 | 195 | 0.0 | 0.0 | 0.00 | 0.00 | 0.00 | 43 | 1018.5 |
| 20260505012134 | 65 | 245 | 0.0 | 0.0 | 0.00 | 0.00 | 0.00 | 42 | 1018.4 |
| 20260505011630 | 65 | 282 | 0.0 | 0.9 | 0.00 | 0.00 | 0.00 | 42 | 1018.4 |
| 20260505011127 | 65 | 109 | 0.0 | 0.0 | 0.00 | 0.00 | 0.00 | 41 | 1018.4 |
| 20260505010622 | 65 | 287 | 1.7 | 2.6 | 0.00 | 0.00 | 0.00 | 42 | 1018.3 |
| 20260505010119 | 65 | 273 | 0.9 | 1.7 | 0.00 | 0.00 | 0.00 | 38 | 1018.3 |
| 20260505005615 | 65 | 164 | 0.0 | 0.9 | 0.00 | 0.00 | 0.00 | 42 | 1018.0 |
| 20260505005112 | 66 | 42 | 0.9 | 1.7 | 0.00 | 0.00 | 0.00 | 42 | 1018.5 |
| 20260505004609 | 66 | 30 | 1.7 | 1.7 | 0.00 | 0.00 | 0.00 | 41 | 1018.3 |
| 20260505004106 | 67 | 343 | 0.9 | 1.7 | 0.00 | 0.00 | 0.00 | 39 | 1018.1 |
| 20260505003603 | 66 | 349 | 0.9 | 0.9 | 0.00 | 0.00 | 0.00 | 42 | 1018.3 |
| 20260505003101 | 65 | 244 | 0.0 | 0.9 | 0.00 | 0.00 | 0.00 | 43 | 1018.5 |
| 20260505002556 | 65 | 76 | 0.0 | 1.7 | 0.00 | 0.00 | 0.00 | 41 | 1018.0 |
| 20260505002055 | 65 | 3 | 2.6 | 4.3 | 0.00 | 0.00 | 0.00 | 43 | 1018.1 |
| 20260505001552 | 65 | 131 | 0.9 | 0.9 | 0.00 | 0.00 | 0.00 | 43 | 1018.0 |
| 20260505001049 | 66 | 75 | 0.0 | 1.7 | 0.00 | 0.00 | 0.00 | 42 | 1018.1 |
| 20260505000546 | 67 | 353 | 0.0 | 0.0 | 0.00 | 0.00 | 0.00 | 42 | 1017.9 |
| 20260505000044 | 68 | 33 | 1.7 | 5.2 | 0.00 | 0.00 | 0.00 | 41 | 1017.9 |
| 20260504235540 | 69 | 152 | 0.0 | 0.0 | 0.00 | 0.00 | 0.00 | 42 | 1017.8 |
| 20260504235038 | 69 | 136 | 0.0 | 0.0 | 0.00 | 0.00 | 0.00 | 39 | 1017.8 |
| 20260504234534 | 69 | 325 | 0.9 | 0.9 | 0.00 | 0.00 | 0.00 | 44 | 1017.7 |
| 20260504234031 | 68 | 324 | 1.7 | 2.6 | 0.00 | 0.00 | 0.00 | 39 | 1017.6 |
| 20260504233526 | 68 | 161 | 0.0 | 0.0 | 0.00 | 0.00 | 0.00 | 43 | 1017.6 |
| 20260504233023 | 68 | 323 | 0.9 | 0.9 | 0.00 | 0.00 | 0.00 | 41 | 1017.7 |
| 20260504232520 | 69 | 235 | 0.0 | 0.9 | 0.00 | 0.00 | 0.00 | 38 | 1017.6 |
| 20260504232018 | 69 | 174 | 1.7 | 2.6 | 0.00 | 0.00 | 0.00 | 39 | 1017.8 |
| 20260504231514 | 68 | 67 | 4.3 | 6.1 | 0.00 | 0.00 | 0.00 | 40 | 1017.7 |
| 20260504231011 | 68 | 338 | 7.8 | 8.7 | 0.00 | 0.00 | 0.00 | 40 | 1017.6 |
| 20260504230507 | 69 | 352 | 4.3 | 5.2 | 0.00 | 0.00 | 0.00 | 40 | 1017.7 |
| 20260504230006 | 69 | 325 | 5.2 | 7.0 | 0.00 | 0.00 | 0.00 | 39 | 1017.9 |
| 20260504225503 | 68 | 351 | 4.3 | 7.0 | 0.00 | 0.00 | 0.00 | 40 | 1017.7 |
| 20260504225000 | 69 | 355 | 0.9 | 1.7 | 0.00 | 0.00 | 0.00 | 40 | 1017.7 |
| 20260504224456 | 69 | 338 | 0.9 | 0.9 | 0.00 | 0.00 | 0.00 | 42 | 1017.7 |
| 20260504223953 | 68 | 325 | 3.5 | 5.2 | 0.00 | 0.00 | 0.00 | 37 | 1017.7 |
| 20260504223450 | 68 | 14 | 5.2 | 7.8 | 0.00 | 0.00 | 0.00 | 38 | 1017.9 |
| 20260504222945 | 69 | 329 | 7.0 | 8.7 | 0.00 | 0.00 | 0.00 | 39 | 1017.6 |
| 20260504222443 | 69 | 328 | 9.6 | 12.2 | 0.00 | 0.00 | 0.00 | 37 | 1017.8 |
| 20260504221940 | 69 | 336 | 7.0 | 8.7 | 0.00 | 0.00 | 0.00 | 37 | 1017.7 |
| 20260504221437 | 69 | 347 | 5.2 | 7.0 | 0.00 | 0.00 | 0.00 | 37 | 1017.6 |
| 20260504220934 | 69 | 3 | 7.0 | 7.8 | 0.00 | 0.00 | 0.00 | 37 | 1017.6 |
| 20260504220431 | 69 | 304 | 4.3 | 4.3 | 0.00 | 0.00 | 0.00 | 40 | 1017.6 |
| 20260504215928 | 70 | 335 | 10.4 | 12.2 | 0.00 | 0.00 | 0.00 | 38 | 1017.7 |
| 20260504215425 | 70 | 344 | 4.3 | 4.3 | 0.00 | 0.00 | 0.00 | 39 | 1017.6 |
| 20260504214921 | 69 | 29 | 2.6 | 2.6 | 0.00 | 0.00 | 0.00 | 41 | 1017.7 |
| 20260504214418 | 70 | 334 | 7.8 | 9.6 | 0.00 | 0.00 | 0.00 | 39 | 1017.6 |
| 20260504213914 | 70 | 330 | 7.0 | 8.7 | 0.00 | 0.00 | 0.00 | 37 | 1017.6 |
| 20260504213410 | 70 | 324 | 9.6 | 11.3 | 0.00 | 0.00 | 0.00 | 37 | 1017.9 |
| 20260504212908 | 70 | 344 | 5.2 | 6.1 | 0.00 | 0.00 | 0.00 | 41 | 1017.9 |
| 20260504212403 | 69 | 323 | 7.0 | 8.7 | 0.00 | 0.00 | 0.00 | 37 | 1017.9 |
| 20260504211902 | 69 | 327 | 6.1 | 7.0 | 0.00 | 0.00 | 0.00 | 39 | 1017.7 |
| 20260504211357 | 69 | 305 | 6.1 | 7.0 | 0.00 | 0.00 | 0.00 | 39 | 1017.9 |
| 20260504210855 | 69 | 343 | 5.2 | 6.1 | 0.00 | 0.00 | 0.00 | 38 | 1017.8 |
| 20260504210352 | 69 | 352 | 8.7 | 11.3 | 0.00 | 0.00 | 0.00 | 41 | 1018.0 |
| 20260504205849 | 68 | 286 | 9.6 | 11.3 | 0.00 | 0.00 | 0.00 | 37 | 1018.4 |
| 20260504205347 | 69 | 322 | 7.8 | 8.7 | 0.00 | 0.00 | 0.00 | 39 | 1018.1 |
| 20260504204845 | 68 | 296 | 6.1 | 7.0 | 0.00 | 0.00 | 0.00 | 40 | 1018.3 |
| 20260504204343 | 69 | 352 | 8.7 | 12.2 | 0.00 | 0.00 | 0.00 | 40 | 1018.4 |
| 20260504203842 | 69 | 326 | 3.5 | 5.2 | 0.00 | 0.00 | 0.00 | 38 | 1018.4 |
| 20260504203338 | 68 | 318 | 4.3 | 6.1 | 0.00 | 0.00 | 0.00 | 38 | 1018.1 |
| 20260504202834 | 68 | 327 | 5.2 | 7.0 | 0.00 | 0.00 | 0.00 | 39 | 1018.3 |
| 20260504202332 | 69 | 270 | 3.5 | 5.2 | 0.00 | 0.00 | 0.00 | 40 | 1018.3 |
| 20260504201828 | 68 | 320 | 8.7 | 11.3 | 0.00 | 0.00 | 0.00 | 39 | 1018.4 |
| 20260504201326 | 68 | 318 | 2.6 | 4.3 | 0.00 | 0.00 | 0.00 | 39 | 1018.4 |
| 20260504200823 | 68 | 318 | 10.4 | 12.2 | 0.00 | 0.00 | 0.00 | 37 | 1018.4 |
| 20260504200319 | 68 | 319 | 4.3 | 8.7 | 0.00 | 0.00 | 0.00 | 42 | 1018.4 |
| 20260504195815 | 68 | 20 | 7.0 | 7.8 | 0.00 | 0.00 | 0.00 | 38 | 1018.5 |
| 20260504195311 | 69 | 324 | 5.2 | 6.1 | 0.00 | 0.00 | 0.00 | 38 | 1018.5 |
| 20260504194808 | 67 | 323 | 5.2 | 7.0 | 0.00 | 0.00 | 0.00 | 43 | 1018.5 |
| 20260504194304 | 68 | 319 | 7.8 | 7.8 | 0.00 | 0.00 | 0.00 | 38 | 1018.3 |
| 20260504193801 | 67 | 331 | 7.8 | 8.7 | 0.00 | 0.00 | 0.00 | 37 | 1018.6 |
| 20260504193258 | 66 | 345 | 7.0 | 8.7 | 0.00 | 0.00 | 0.00 | 39 | 1018.5 |
| 20260504192757 | 67 | 355 | 4.3 | 5.2 | 0.00 | 0.00 | 0.00 | 41 | 1018.7 |
| 20260504192254 | 67 | 337 | 5.2 | 6.1 | 0.00 | 0.00 | 0.00 | 41 | 1018.8 |
| 20260504191753 | 64 | 336 | 5.2 | 6.1 | 0.00 | 0.00 | 0.00 | 40 | 1018.9 |
| 20260504191249 | 65 | 0 | 7.8 | 11.3 | 0.00 | 0.00 | 0.00 | 42 | 1018.9 |
| 20260504190745 | 67 | 335 | 7.0 | 7.8 | 0.00 | 0.00 | 0.00 | 42 | 1018.9 |
| 20260504190242 | 68 | 345 | 2.6 | 2.6 | 0.00 | 0.00 | 0.00 | 41 | 1019.1 |
| 20260504185738 | 66 | 358 | 7.8 | 8.7 | 0.00 | 0.00 | 0.00 | 39 | 1018.9 |
| 20260504185235 | 66 | 329 | 7.8 | 9.6 | 0.00 | 0.00 | 0.00 | 39 | 1019.0 |
| 20260504184731 | 65 | 328 | 10.4 | 13.9 | 0.00 | 0.00 | 0.00 | 39 | 1019.1 |
| 20260504184227 | 65 | 252 | 4.3 | 7.0 | 0.00 | 0.00 | 0.00 | 43 | 1019.2 |
| 20260504183723 | 65 | 318 | 5.2 | 6.1 | 0.00 | 0.00 | 0.00 | 39 | 1019.4 |
| 20260504183220 | 65 | 346 | 7.0 | 8.7 | 0.00 | 0.00 | 0.00 | 43 | 1019.1 |
| 20260504182718 | 65 | 319 | 5.2 | 6.1 | 0.00 | 0.00 | 0.00 | 40 | 1019.5 |
| 20260504182215 | 64 | 314 | 3.5 | 4.3 | 0.00 | 0.00 | 0.00 | 44 | 1019.6 |
| 20260504181713 | 64 | 337 | 7.0 | 7.8 | 0.00 | 0.00 | 0.00 | 43 | 1019.7 |
| 20260504181210 | 65 | 324 | 5.2 | 6.1 | 0.00 | 0.00 | 0.00 | 43 | 1019.6 |
| 20260504180709 | 65 | 335 | 8.7 | 9.6 | 0.00 | 0.00 | 0.00 | 43 | 1019.5 |
| 20260504180207 | 64 | 326 | 6.1 | 7.0 | 0.00 | 0.00 | 0.00 | 41 | 1019.8 |
| 20260504175704 | 64 | 299 | 3.5 | 5.2 | 0.00 | 0.00 | 0.00 | 43 | 1019.6 |
| 20260504175201 | 64 | 307 | 3.5 | 6.1 | 0.00 | 0.00 | 0.00 | 43 | 1019.6 |
| 20260504174659 | 63 | 324 | 6.1 | 7.0 | 0.00 | 0.00 | 0.00 | 40 | 1019.8 |
| 20260504174156 | 62 | 278 | 2.6 | 2.6 | 0.00 | 0.00 | 0.00 | 43 | 1019.8 |
| 20260504173652 | 63 | 328 | 7.0 | 7.8 | 0.00 | 0.00 | 0.00 | 43 | 1019.7 |
| 20260504173150 | 63 | 319 | 7.8 | 9.6 | 0.00 | 0.00 | 0.00 | 43 | 1019.9 |
| 20260504172646 | 63 | 217 | 2.6 | 4.3 | 0.00 | 0.00 | 0.00 | 42 | 1020.0 |
| 20260504172143 | 62 | 345 | 7.0 | 7.0 | 0.00 | 0.00 | 0.00 | 42 | 1019.9 |
| 20260504171639 | 62 | 322 | 5.2 | 7.0 | 0.00 | 0.00 | 0.00 | 42 | 1019.9 |
| 20260504171137 | 63 | 328 | 4.3 | 5.2 | 0.00 | 0.00 | 0.00 | 43 | 1020.0 |
| 20260504170633 | 62 | 2 | 1.7 | 1.7 | 0.00 | 0.00 | 0.00 | 43 | 1020.2 |
| 20260504170131 | 62 | 326 | 6.1 | 7.0 | 0.00 | 0.00 | 0.00 | 42 | 1020.0 |
| 20260504151016 | 58 | 333 | 4.3 | 5.2 | 0.00 | 0.00 | 0.00 | 50 | 1020.4 |
| 20260504150514 | 57 | 347 | 5.2 | 6.1 | 0.00 | 0.00 | 0.00 | 52 | 1020.4 |
| 20260504140939 | 54 | 325 | 2.6 | 5.2 | 0.00 | 0.00 | 0.00 | 61 | 1020.4 |
| 20260504140436 | 53 | 5 | 1.7 | 2.6 | 0.00 | 0.00 | 0.00 | 60 | 1020.5 |
| 20260504130400 | 40 | 157 | 0.0 | 0.0 | 0.00 | 0.00 | 0.00 | 94 | 1019.6 |
| 20260504110248 | 38 | 233 | 0.0 | 0.0 | 0.00 | 0.00 | 0.00 | 92 | 1019.1 |
| 20260504100211 | 41 | 211 | 0.0 | 0.0 | 0.00 | 0.00 | 0.00 | 90 | 1018.5 |
| 20260504090134 | 42 | 223 | 0.0 | 0.0 | 0.00 | 0.00 | 0.00 | 87 | 1018.5 |
| 20260504081604 | 42 | 250 | 0.0 | 0.9 | 0.00 | 0.00 | 0.00 | 86 | 1018.6 |
| 20260504081100 | 43 | 263 | 0.0 | 0.0 | 0.00 | 0.00 | 0.00 | 85 | 1018.6 |
| 20260504080557 | 44 | 234 | 0.0 | 0.9 | 0.00 | 0.00 | 0.00 | 85 | 1018.5 |